TimeEST,TemperatureF,Dew PointF,Humidity,Sea Level PressureIn,VisibilityMPH,Wind Direction,Wind SpeedMPH,Gust SpeedMPH,PrecipitationIn,Events,Conditions,WindDirDegrees,DateUTC
12:53 AM,66.0,57.9,75,30.27,10.0,East,5.8,-,N/A,,Clear,90,2013-01-28 05:53:00
1:53 AM,64.9,57.9,78,30.26,10.0,East,4.6,-,N/A,,Clear,90,2013-01-28 06:53:00
2:53 AM,66.0,59.0,78,30.26,10.0,East,5.8,-,N/A,,Clear,100,2013-01-28 07:53:00
3:53 AM,64.9,59.0,81,30.25,10.0,East,6.9,-,N/A,,Clear,100,2013-01-28 08:53:00
4:53 AM,64.9,60.1,84,30.26,10.0,East,5.8,-,N/A,,Scattered Clouds,80,2013-01-28 09:53:00
5:53 AM,64.0,59.0,84,30.26,10.0,East,6.9,-,N/A,,Clear,80,2013-01-28 10:53:00
6:53 AM,63.0,59.0,87,30.28,10.0,East,5.8,-,N/A,,Clear,80,2013-01-28 11:53:00
7:53 AM,64.9,60.1,84,30.29,9.0,East,5.8,-,N/A,,Clear,80,2013-01-28 12:53:00
8:53 AM,70.0,61.0,73,30.30,10.0,ESE,8.1,-,N/A,,Partly Cloudy,110,2013-01-28 13:53:00
9:53 AM,75.9,61.0,60,30.31,10.0,ESE,12.7,-,N/A,,Partly Cloudy,110,2013-01-28 14:53:00
10:53 AM,78.1,61.0,56,30.31,10.0,SE,15.0,23.0,N/A,,Clear,130,2013-01-28 15:53:00
11:53 AM,80.1,60.1,50,30.29,10.0,ESE,11.5,19.6,N/A,,Clear,110,2013-01-28 16:53:00
12:53 PM,81.0,59.0,47,30.27,10.0,East,10.4,-,N/A,,Scattered Clouds,100,2013-01-28 17:53:00
1:53 PM,81.0,59.0,47,30.23,10.0,ESE,9.2,-,N/A,,Clear,110,2013-01-28 18:53:00
2:53 PM,82.0,59.0,45,30.21,10.0,ESE,9.2,-,N/A,,Partly Cloudy,120,2013-01-28 19:53:00
3:53 PM,81.0,59.0,47,30.20,10.0,ESE,8.1,-,N/A,,Scattered Clouds,120,2013-01-28 20:53:00
4:53 PM,81.0,59.0,47,30.20,10.0,East,9.2,-,N/A,,Overcast,100,2013-01-28 21:53:00
5:53 PM,80.1,57.9,47,30.22,10.0,SE,5.8,-,N/A,,Overcast,130,2013-01-28 22:53:00
6:53 PM,75.0,57.9,55,30.23,10.0,Calm,Calm,-,N/A,,Clear,0,2013-01-28 23:53:00
7:53 PM,73.0,55.9,55,30.25,10.0,Calm,Calm,-,N/A,,Clear,0,2013-01-29 00:53:00
8:53 PM,69.1,57.0,65,30.25,10.0,East,4.6,-,N/A,,Clear,100,2013-01-29 01:53:00
9:53 PM,69.1,57.9,68,30.25,10.0,ESE,6.9,-,N/A,,Partly Cloudy,120,2013-01-29 02:53:00
10:53 PM,68.0,59.0,73,30.25,10.0,ESE,5.8,-,N/A,,Clear,110,2013-01-29 03:53:00
11:53 PM,66.9,60.1,79,30.25,10.0,ESE,3.5,-,N/A,,Clear,120,2013-01-29 04:53:00